Location: Antioch Baptist Church
(32.6696°N, 85.7327°W)
Time: 12:22:19
(UTC+00:00)

Mugunghwa Rocket - Pass Details

Date: 14 July 2020
Orbit: 936 x 1372 km, 26.7° (Epoch: 08 August)

Event Time Altitude Azimuth Distance (km) Brightness Sun altitude
Rises 03:20:14 0° 253° (WSW) 3,613 7.2 -25.1°
Reaches altitude 10° 03:22:51 10° 248° (WSW) 2,699 6.5 -25.5°
Enters shadow 03:28:23 48° 195° (SSW) 1,293 4.3 -26.2°
